EW1458 Weather Reports


time (UTC)temp
C
wind
direction
speed
KPH
gust
KPH
rain 1hr
cm
rain 24hr
cm
rain mn
cm
humidity
%
barometer
mb
20260508100457 6 247 3.2 9.7 0.00 1.24 0.00 85 1002.4
20260508095458 5 192 0.0 4.8 0.00 1.24 0.00 92 1002.2
20260508094958 5 339 0.0 3.2 0.00 1.24 0.00 92 1002.3
20260508094457 5 91 0.0 4.8 0.00 1.24 0.00 93 1002.1
20260508093956 5 63 0.0 4.8 0.00 1.24 0.00 93 1002.0
20260508093457 5 304 1.6 6.4 0.00 1.24 0.00 94 1002.2
20260508092956 5 304 3.2 6.4 0.00 1.24 0.00 95 1002.0
20260508092458 5 269 3.2 6.4 0.00 1.24 0.00 96 1002.0
20260508091956 4 208 0.0 4.8 0.00 1.24 0.00 96 1002.1
20260508091454 4 161 0.0 4.8 0.00 1.24 0.00 96 1001.9
20260508090953 4 154 3.2 4.8 0.00 1.24 0.00 96 1001.9
20260508090453 4 133 3.2 9.7 0.00 1.24 0.00 96 1002.1
20260508085953 4 305 0.0 9.7 0.00 1.24 0.00 96 1002.1
20260508084952 4 179 1.6 4.8 0.00 1.24 0.00 95 1002.2
20260508084452 5 106 3.2 4.8 0.00 1.24 0.00 95 1002.2
20260508083947 4 222 1.6 3.2 0.00 1.24 0.00 95 1002.1
20260508083449 5 118 0.0 3.2 0.00 1.24 0.00 94 1002.0
20260508082947 5 85 0.0 3.2 0.00 1.24 0.00 93 1002.1
20260508082447 5 97 1.6 4.8 0.00 1.27 0.00 94 1002.2
20260508081946 5 230 3.2 4.8 0.00 1.27 0.00 94 1002.0
20260508081446 5 307 3.2 4.8 0.00 1.27 0.00 94 1002.2
20260508080947 5 352 0.0 4.8 0.00 1.27 0.00 94 1002.0
20260508080445 5 237 0.0 4.8 0.00 1.27 0.00 93 1002.3
20260508075944 5 110 0.0 1.6 0.00 1.27 0.00 93 1002.2
20260508075442 5 77 0.0 3.2 0.00 1.27 0.00 93 1002.3
20260508074940 5 223 0.0 3.2 0.00 1.27 0.00 93 1002.0
20260508074441 5 55 0.0 1.6 0.00 1.27 0.00 93 1002.1
20260508073939 5 125 0.0 1.6 0.00 1.27 0.00 93 1002.3
20260508072939 5 268 0.0 3.2 0.00 1.27 0.00 93 1002.1
20260508072438 5 184 0.0 3.2 0.00 1.27 0.00 93 1002.4
20260508070933 6 57 1.6 3.2 0.00 1.30 0.00 91 1002.1
20260508070432 6 117 0.0 3.2 0.00 1.30 0.00 91 1002.2
20260508065433 6 160 0.0 3.2 0.00 1.30 0.00 90 1002.3
20260508064932 6 111 3.2 4.8 0.00 1.30 0.00 89 1002.4
20260508063939 7 279 3.2 4.8 0.00 1.30 0.00 87 1002.5
20260508062927 7 117 0.0 3.2 0.00 1.30 0.00 86 1002.4
20260508062427 7 228 0.0 4.8 0.00 1.30 0.00 86 1002.2
20260508061426 7 269 3.2 8.0 0.00 1.30 0.00 85 1002.0
20260508060926 7 243 4.8 8.0 0.00 1.30 0.00 85 1002.4
20260508060426 7 242 3.2 8.0 0.00 1.30 0.00 86 1002.6
20260508055923 6 242 1.6 6.4 0.00 1.30 0.00 90 1002.6
20260508055424 6 194 1.6 4.8 0.00 1.30 0.00 91 1002.4
20260508054924 6 97 3.2 4.8 0.00 1.30 0.00 91 1002.4
20260508054425 6 208 0.0 4.8 0.00 1.30 0.00 91 1002.4
20260508053925 6 190 1.6 4.8 0.00 1.30 0.00 90 1002.3
20260508053422 6 108 1.6 4.8 0.00 1.30 0.00 90 1002.3
20260508052925 7 101 3.2 4.8 0.00 1.30 0.00 89 1002.2
20260508052423 7 182 0.0 6.4 0.00 1.30 0.00 88 1002.4
20260508051924 7 257 3.2 8.0 0.00 1.30 0.00 88 1002.4
20260508051423 7 300 4.8 8.0 0.00 1.30 0.00 88 1002.6
20260508050921 7 265 4.8 6.4 0.00 1.32 0.00 88 1002.7
20260508050421 7 257 3.2 11.3 0.00 1.32 0.00 88 1002.6
20260508045421 7 234 4.8 8.0 0.00 1.37 0.00 88 1002.6
20260508044919 7 263 4.8 9.7 0.00 1.37 0.00 89 1002.6
20260508044419 7 300 6.4 9.7 0.00 1.37 0.00 89 1002.5
20260508043418 7 272 3.2 9.7 0.00 1.37 0.00 90 1002.7
20260508042917 6 248 3.2 9.7 0.00 1.37 0.00 91 1002.7
20260508042417 6 309 3.2 6.4 0.00 1.37 0.00 94 1002.9
20260508041930 6 189 0.0 6.4 0.00 1.42 0.00 94 1002.8
20260508041414 6 170 3.2 3.2 0.00 1.42 0.00 94 1002.6
20260508040912 6 161 0.0 3.2 0.00 1.45 0.00 94 1002.7
20260508040411 6 148 0.0 3.2 0.00 1.50 0.00 94 1002.6
20260508035910 6 222 3.2 4.8 0.00 1.50 0.00 94 1002.6
20260508035410 6 284 0.0 4.8 0.00 1.50 0.00 94 1002.8
20260508034408 6 299 0.0 1.6 0.00 1.50 0.00 94 1002.6
20260508033905 6 12 0.0 3.2 0.00 1.50 0.00 94 1002.7
20260508033353 6 120 0.0 3.2 0.00 1.50 0.00 94 1002.8
20260508032847 6 123 1.6 3.2 0.00 1.50 0.00 94 1002.5
20260508032345 6 51 0.0 3.2 0.00 1.50 0.00 93 1002.3
20260508031845 6 121 1.6 4.8 0.00 1.50 0.00 93 1002.0
20260508031345 6 184 1.6 4.8 0.00 1.50 0.00 94 1002.3
20260508030344 6 302 3.2 6.4 0.00 1.50 0.00 93 1002.5
20260508025340 6 330 0.0 3.2 0.00 1.50 1.50 92 1002.4
20260508024839 6 205 0.0 3.2 0.00 1.50 1.50 91 1002.6
20260508024339 6 187 0.0 1.6 0.00 1.50 1.50 90 1002.5
20260508023839 7 117 1.6 3.2 0.00 1.50 1.50 89 1002.5
20260508023339 7 234 1.6 3.2 0.00 1.50 1.50 90 1002.6
20260508022838 7 311 0.0 3.2 0.00 1.50 1.50 91 1002.6
20260508022335 7 257 0.0 3.2 0.00 1.50 1.50 92 1002.8
20260508021834 7 9 0.0 3.2 0.00 1.50 1.50 92 1002.6
20260508021336 7 6 1.6 3.2 0.00 1.50 1.50 92 1002.6
20260508020830 7 49 1.6 3.2 0.00 1.50 1.50 91 1002.7
20260508020329 7 58 3.2 3.2 0.00 1.50 1.50 89 1002.6
20260508015825 7 104 0.0 1.6 0.00 1.50 1.50 87 1002.7
20260508015326 7 22 0.0 1.6 0.00 1.50 1.50 88 1002.6
20260508013323 8 284 0.0 3.2 0.00 1.50 1.50 87 1002.5
20260508012821 8 255 0.0 3.2 0.00 1.50 1.50 87 1002.7
20260508012320 8 304 0.0 3.2 0.00 1.50 1.50 87 1002.8
20260508011817 8 299 0.0 3.2 0.00 1.50 1.50 87 1002.7
20260508011317 8 292 0.0 3.2 0.00 1.50 1.50 86 1002.4
20260508010816 8 122 0.0 1.6 0.00 1.50 1.50 85 1002.6
20260508010315 8 72 1.6 3.2 0.00 1.50 1.50 85 1002.4
20260508005815 8 272 0.0 4.8 0.00 1.50 1.50 84 1002.6
20260508005314 8 177 0.0 4.8 0.00 1.50 1.50 84 1002.4
20260508004306 9 276 3.2 6.4 0.00 1.50 1.50 83 1002.3
20260508003805 9 253 1.6 8.0 0.00 1.50 1.50 83 1002.4
20260508003305 9 293 1.6 8.0 0.00 1.50 1.50 82 1002.2
20260508002306 9 239 4.8 9.7 0.00 1.50 1.50 82 1002.3
20260508001803 10 307 1.6 9.7 0.00 1.50 1.50 81 1002.4
20260508001301 10 248 6.4 12.9 0.00 1.50 1.50 81 1002.4
20260508000801 10 232 4.8 12.9 0.00 1.50 1.50 81 1002.2
20260508000258 10 230 4.8 17.7 0.00 1.50 1.50 81 1002.0
20260507235757 10 270 8.0 17.7 0.00 1.50 1.50 81 1002.1
20260507235257 10 230 8.0 14.5 0.00 1.50 1.50 80 1002.0
20260507234757 10 249 6.4 16.1 0.00 1.50 1.50 80 1002.2
20260507234255 10 235 8.0 16.1 0.00 1.50 1.50 80 1001.9
20260507233254 10 246 9.7 19.3 0.00 1.50 1.50 79 1002.2
20260507232753 10 247 11.3 14.5 0.00 1.50 1.50 79 1001.9
20260507231753 11 231 9.7 20.9 0.00 1.50 1.50 77 1001.8
20260507230249 11 282 6.4 19.3 0.00 1.50 1.50 75 1001.2
20260507225747 12 225 11.3 17.7 0.00 1.50 1.50 73 1001.3
20260507225245 12 238 6.4 17.7 0.00 1.50 1.50 72 1001.5
20260507224746 12 307 6.4 17.7 0.00 1.50 1.50 72 1001.3
20260507224244 12 241 6.4 19.3 0.00 1.50 1.50 70 1001.3
20260507223743 13 221 12.9 19.3 0.00 1.50 1.50 67 1001.5
20260507223256 13 253 9.7 17.7 0.00 1.50 1.50 64 1001.6
20260507222754 13 203 8.0 17.7 0.00 1.50 1.50 62 1001.3
20260507222252 13 283 8.0 14.5 0.00 1.50 1.50 58 1001.2
20260507221738 14 282 4.8 12.9 0.00 1.50 1.50 58 1001.4
20260507221234 14 295 8.0 16.1 0.00 1.50 1.50 57 1001.3
20260507220735 14 311 6.4 16.1 0.00 1.50 1.50 56 1001.2
20260507220230 14 291 11.3 19.3 0.00 1.50 1.50 56 1001.3
20260507215732 14 290 8.0 20.9 0.00 1.50 1.50 57 1001.5
20260507215230 14 311 9.7 20.9 0.00 1.50 1.50 57 1001.2
20260507214731 15 269 9.7 20.9 0.00 1.50 1.50 59 1001.4
20260507214230 14 259 8.0 20.9 0.00 1.50 1.50 59 1001.3
20260507213231 15 297 8.0 16.1 0.00 1.50 1.50 58 1001.3
20260507212229 15 266 8.0 19.3 0.00 1.50 1.50 59 1001.3
20260507211729 15 274 4.8 19.3 0.00 1.50 1.50 61 1001.2
20260507210727 15 217 9.7 19.3 0.00 1.50 1.50 57 1001.3
20260507210227 15 253 8.0 20.9 0.00 1.50 1.50 62 1001.5
20260507205727 15 262 9.7 20.9 0.00 1.50 1.50 59 1001.3
20260507205227 14 279 6.4 20.9 0.00 1.50 1.50 63 1000.9
20260507204728 14 241 6.4 20.9 0.00 1.50 1.50 62 1001.0
20260507204227 14 203 6.4 20.9 0.00 1.50 1.50 63 1001.1
20260507203727 15 243 9.7 17.7 0.00 1.50 1.50 60 1001.0
20260507203224 15 283 4.8 19.3 0.00 1.50 1.50 63 1001.1
20260507202723 14 233 4.8 19.3 0.00 1.50 1.50 63 1000.8
20260507201733 15 238 3.2 20.9 0.00 1.50 1.50 60 1001.1
20260507201221 14 272 6.4 22.5 0.00 1.50 1.50 67 1001.1
20260507200718 14 256 14.5 22.5 0.00 1.50 1.50 65 1001.0
20260507200218 14 260 14.5 20.9 0.00 1.50 1.50 69 1000.9
20260507195718 15 240 6.4 19.3 0.00 1.50 1.50 67 1001.1
20260507194709 14 252 19.3 24.1 0.00 1.50 1.50 68 1001.2
20260507194205 14 187 11.3 20.9 0.00 1.50 1.50 72 1001.2
20260507193704 13 205 4.8 17.7 0.00 1.50 1.50 73 1001.0
20260507193205 14 237 11.3 17.7 0.00 1.50 1.50 71 1001.2
20260507192703 13 262 11.3 24.1 0.00 1.50 1.50 74 1001.0
20260507192201 13 253 14.5 24.1 0.00 1.50 1.50 72 1001.1
20260507191658 13 251 9.7 24.1 0.00 1.50 1.50 76 1001.2
20260507191155 13 239 11.3 20.9 0.00 1.50 1.50 79 1001.1
20260507190153 13 243 8.0 19.3 0.00 1.50 1.50 78 1001.1
20260507185653 13 232 6.4 19.3 0.00 1.50 1.50 82 1001.3
20260507185153 13 212 1.6 16.1 0.00 1.50 1.50 83 1001.3
20260507184653 12 254 9.7 16.1 0.00 1.50 1.50 82 1001.0
20260507184153 12 260 8.0 14.5 0.00 1.50 1.50 84 1001.1
20260507183652 12 265 3.2 16.1 0.00 1.50 1.50 85 1001.1
20260507183152 12 258 12.9 16.1 0.00 1.50 1.50 85 1001.3
20260507182653 12 182 4.8 8.0 0.00 1.50 1.50 86 1001.0
20260507181655 12 220 4.8 12.9 0.00 1.50 1.50 87 1001.6
20260507181203 11 283 6.4 14.5 0.00 1.50 1.50 84 1001.5
20260507180646 11 231 4.8 14.5 0.00 1.50 1.50 86 1001.7
20260507180144 11 263 6.4 14.5 0.00 1.50 1.50 86 1001.5
20260507175645 11 249 8.0 14.5 0.00 1.50 1.50 85 1001.7
20260507175141 11 244 4.8 11.3 0.00 1.50 1.50 86 1001.7
20260507174640 11 261 8.0 11.3 0.00 1.50 1.50 89 1001.7
20260507174139 11 266 6.4 14.5 0.00 1.50 1.50 89 1001.6
20260507173134 11 294 9.7 16.1 0.00 1.50 1.50 89 1001.6
20260507172132 11 197 6.4 19.3 0.00 1.50 1.50 90 1001.8
20260507171631 10 247 9.7 19.3 0.00 1.50 1.50 89 1001.9
20260507171128 11 272 6.4 14.5 0.00 1.50 1.50 91 1001.8
20260507170629 11 248 6.4 14.5 0.00 1.50 1.50 94 1001.9
20260507170125 10 234 9.7 11.3 0.00 1.50 1.50 93 1002.0
20260507165624 10 263 3.2 11.3 0.00 1.50 1.50 94 1001.4
20260507165123 10 206 3.2 14.5 0.00 1.50 1.50 92 1001.4
20260507163617 10 294 4.8 12.9 0.05 1.50 1.50 95 1001.6
20260507163109 9 233 4.8 20.9 0.05 1.50 1.50 95 1001.6
20260507162607 9 255 9.7 20.9 0.05 1.50 1.50 95 1002.5
20260507162104 9 264 8.0 22.5 0.08 1.50 1.50 94 1002.4
20260507161104 10 265 20.9 27.4 0.08 1.50 1.50 94 1002.6
20260507160602 10 286 19.3 25.7 0.13 1.50 1.50 96 1002.3
20260507160110 11 240 6.4 19.3 0.13 1.50 1.50 96 1000.9
20260507155600 11 248 14.5 19.3 0.15 1.50 1.50 96 1001.6
20260507154557 11 253 8.0 17.7 0.20 1.50 1.50 97 1000.9
20260507153554 11 200 6.4 19.3 0.20 1.42 1.42 97 1001.8
20260507153053 11 262 9.7 19.3 0.23 1.42 1.42 97 1002.3
20260507152555 11 262 9.7 16.1 0.23 1.42 1.42 97 1002.2
20260507152050 11 244 6.4 14.5 0.23 1.40 1.40 97 1001.8
20260507151550 11 246 6.4 14.5 0.28 1.40 1.40 97 1001.7
20260507151045 11 258 0.0 9.7 0.28 1.40 1.40 97 1001.6
20260507145543 11 233 6.4 9.7 0.38 1.35 1.35 97 1002.0
20260507145042 11 260 4.8 9.7 0.33 1.30 1.30 97 1002.1
20260507143539 11 232 3.2 6.4 0.46 1.22 1.22 97 1002.1
20260507143039 11 34 1.6 8.0 0.46 1.19 1.19 97 1001.9
20260507142033 11 224 3.2 9.7 0.53 1.17 1.17 97 1001.8
20260507141031 11 37 0.0 6.4 0.51 1.09 1.12 97 1002.2
20260507140531 11 303 0.0 6.4 0.51 1.07 1.07 97 1002.1
20260507140030 11 308 0.0 6.4 0.51 1.04 1.04 97 1002.7
20260507135531 11 293 4.8 8.0 0.51 0.97 0.97 97 1002.8
20260507135030 11 275 6.4 8.0 0.58 0.94 0.94 97 1002.9
20260507134527 11 299 6.4 8.0 0.51 0.86 0.89 96 1002.6
20260507134028 11 256 6.4 9.7 0.53 0.84 0.84 96 1003.0
20260507133525 11 266 4.8 9.7 0.48 0.76 0.76 96 1002.9
20260507133022 11 257 6.4 11.3 0.46 0.74 0.74 96 1002.8
20260507132520 11 243 4.8 14.5 0.41 0.66 0.69 96 1002.8
20260507132031 11 234 6.4 14.5 0.36 0.64 0.64 95 1003.3
20260507131512 11 234 6.4 17.7 0.33 0.61 0.61 95 1003.5
20260507131026 11 254 11.3 19.3 0.30 0.58 0.58 95 1003.4
20260507130511 12 240 14.5 19.3 0.28 0.56 0.56 95 1003.4
20260507130009 12 248 9.7 20.9 0.23 0.51 0.51 95 1003.6
20260507125508 12 276 6.4 24.1 0.15 0.43 0.43 95 1003.7
20260507125004 12 256 17.7 32.2 0.10 0.38 0.38 94 1003.6
20260507124504 12 253 14.5 32.2 0.05 0.33 0.33 93 1003.6
20260507124004 12 247 29.0 32.2 0.00 0.28 0.30 93 1003.3
20260507123503 12 264 11.3 22.5 0.00 0.28 0.28 92 1003.2
20260507123003 12 233 11.3 14.5 0.00 0.28 0.28 92 1003.0
20260507122501 12 222 8.0 14.5 0.00 0.28 0.28 92 1002.9
20260507121959 13 253 4.8 14.5 0.03 0.28 0.28 92 1002.9
20260507121459 13 239 6.4 17.7 0.03 0.28 0.28 93 1002.8
20260507120957 12 273 0.0 17.7 0.03 0.28 0.28 93 1002.6
20260507120453 13 186 4.8 9.7 0.03 0.28 0.28 93 1002.5
20260507115952 13 160 4.8 12.9 0.03 0.28 0.28 93 1002.4
20260507114950 13 247 11.3 20.9 0.03 0.28 0.28 93 1002.8
20260507113943 13 174 0.0 14.5 0.03 0.28 0.28 93 1003.0
20260507113439 13 254 8.0 14.5 0.03 0.28 0.28 93 1002.5
20260507112939 13 179 4.8 14.5 0.03 0.28 0.28 93 1002.7
20260507112438 13 171 3.2 14.5 0.03 0.28 0.28 92 1002.9
20260507111934 13 86 14.5 14.5 0.00 0.23 0.23 91 1002.7
20260507111432 13 86 14.5 14.5 0.00 0.23 0.23 91 1003.2
20260507110928 13 86 14.5 14.5 0.00 0.23 0.23 90 1003.5
20260507110425 13 86 14.5 14.5 0.00 0.23 0.23 90 1003.4
20260507105926 13 86 14.5 14.5 0.00 0.23 0.23 90 1003.3
20260507105425 13 86 14.5 14.5 0.00 0.23 0.23 90 1003.2
20260507103922 13 86 14.5 14.5 0.00 0.23 0.23 90 1002.6
20260507103410 13 86 14.5 14.5 0.00 0.23 0.23 90 1002.3
20260507102908 13 86 14.5 14.5 0.00 0.23 0.23 90 1002.2
20260507102407 13 86 14.5 14.5 0.00 0.23 0.23 90 1002.2
20260507101908 13 86 14.5 14.5 0.00 0.23 0.23 91 1002.5
20260507101404 13 86 14.5 14.5 0.00 0.23 0.23 92 1002.4